Hourly Weather Alicante

Today, 24 November, Tuesday

Time Temperature Precipitation Wind Pressure Humidity
00:00 +10°C° 0 mm 1 mps 769 mmHg 87%
01:00 +10°C° 0 mm 1 mps 768 mmHg 87%
02:00 +10°C° 0 mm 1 mps 768 mmHg 87%
03:00 +10°C° 0 mm 1 mps 767 mmHg 87%
04:00 +10°C° 0 mm 1 mps 767 mmHg 87%
05:00 +9°C° 0 mm 1 mps 767 mmHg 86%
06:00 +9°C° 0 mm 1 mps 767 mmHg 86%
07:00 +11°C° 0 mm 1 mps 767 mmHg 80%
08:00 +13°C° 0 mm 1 mps 767 mmHg 73%
09:00 +15°C° 0 mm 2 mps 767 mmHg 66%
10:00 +16°C° 0 mm 2 mps 767 mmHg 61%
11:00 +17°C° 0 mm 2 mps 766 mmHg 56%
12:00 +18°C° 0 mm 3 mps 766 mmHg 51%
13:00 +18°C° 0 mm 3 mps 765 mmHg 50%
14:00 +18°C° 0 mm 3 mps 765 mmHg 49%
15:00 +18°C° 0 mm 3 mps 764 mmHg 49%
16:00 +16°C° 0 mm 3 mps 764 mmHg 59%
17:00 +15°C° 0 mm 2 mps 764 mmHg 69%
18:00 +13°C° 0 mm 2 mps 764 mmHg 79%
19:00 +12°C° 0 mm 2 mps 764 mmHg 81%
20:00 +12°C° 0 mm 2 mps 764 mmHg 83%
21:00 +10°C° 0 mm 2 mps 764 mmHg 85%
22:00 +10°C° 0 mm 2 mps 764 mmHg 85%
23:00 +11°C° 0 mm 1 mps 764 mmHg 85%

Tomorrow, 25 November, Wednesday

Time Temperature Precipitation Wind Pressure Humidity
00:00 +10°C° 0 mm 1 mps 764 mmHg 84%
01:00 +10°C° 0 mm 1 mps 763 mmHg 83%
02:00 +10°C° 0 mm 1 mps 763 mmHg 82%
03:00 +10°C° 0 mm 1 mps 762 mmHg 81%
04:00 +10°C° 0 mm 1 mps 762 mmHg 80%
05:00 +10°C° 0 mm 1 mps 762 mmHg 79%
06:00 +9°C° 0 mm 1 mps 762 mmHg 79%
07:00 +12°C° 0 mm 1 mps 762 mmHg 70%
08:00 +14°C° 0 mm 1 mps 762 mmHg 61%
09:00 +16°C° 0 mm 1 mps 762 mmHg 53%
10:00 +18°C° 0 mm 1 mps 762 mmHg 51%
11:00 +18°C° 0 mm 1 mps 761 mmHg 50%
12:00 +18°C° 0 mm 2 mps 761 mmHg 48%
13:00 +18°C° 0 mm 2 mps 761 mmHg 52%
14:00 +18°C° 0 mm 2 mps 760 mmHg 56%
15:00 +18°C° 0 mm 2 mps 760 mmHg 60%
16:00 +16°C° 0 mm 2 mps 760 mmHg 69%
17:00 +15°C° 0 mm 2 mps 760 mmHg 78%
18:00 +14°C° 0 mm 2 mps 760 mmHg 86%
19:00 +14°C° 0 mm 2 mps 760 mmHg 85%
20:00 +15°C° 0 mm 2 mps 760 mmHg 83%
21:00 +15°C° 0 mm 2 mps 760 mmHg 81%
22:00 +15°C° 0 mm 2 mps 760 mmHg 84%
23:00 +14°C° 0 mm 3 mps 760 mmHg 86%

Day after tomorrow, 26 November, Thursday

Time Temperature Precipitation Wind Pressure Humidity
00:00 +14°C° 0 mm 3 mps 759 mmHg 89%
01:00 +14°C° 0 mm 3 mps 759 mmHg 89%
02:00 +14°C° 0 mm 4 mps 759 mmHg 89%
03:00 +13°C° 0 mm 4 mps 758 mmHg 89%
04:00 +13°C° 0 mm 4 mps 758 mmHg 88%
05:00 +13°C° 0 mm 4 mps 758 mmHg 86%
06:00 +13°C° 0 mm 4 mps 758 mmHg 84%
07:00 +14°C° 0 mm 5 mps 758 mmHg 80%
08:00 +15°C° 0 mm 6 mps 757 mmHg 75%
09:00 +16°C° 0 mm 6 mps 757 mmHg 71%
10:00 +17°C° 0 mm 6 mps 757 mmHg 66%
11:00 +19°C° 0 mm 6 mps 757 mmHg 61%
12:00 +20°C° 0 mm 5 mps 757 mmHg 56%
13:00 +20°C° 0.1 mm 5 mps 756 mmHg 56%
14:00 +20°C° 0.1 mm 4 mps 756 mmHg 55%
15:00 +20°C° 0.1 mm 4 mps 756 mmHg 54%
16:00 +18°C° 0 mm 3 mps 756 mmHg 61%
17:00 +17°C° 0 mm 3 mps 756 mmHg 67%
18:00 +16°C° 0 mm 3 mps 756 mmHg 73%
19:00 +16°C° 0 mm 3 mps 756 mmHg 70%
20:00 +15°C° 0 mm 4 mps 756 mmHg 66%
21:00 +16°C° 0 mm 5 mps 756 mmHg 63%
22:00 +16°C° 0.2 mm 5 mps 756 mmHg 63%
23:00 +16°C° 0.2 mm 5 mps 756 mmHg 64%

27 November, Friday

Time Temperature Precipitation Wind Pressure Humidity
00:00 +16°C° 0.2 mm 6 mps 755 mmHg 65%
01:00 +15°C° 0.8 mm 5 mps 755 mmHg 70%
02:00 +15°C° 0.8 mm 4 mps 755 mmHg 75%
03:00 +15°C° 0.8 mm 2 mps 755 mmHg 80%
04:00 +14°C° 0.5 mm 3 mps 754 mmHg 80%
05:00 +14°C° 0.5 mm 4 mps 754 mmHg 80%
06:00 +14°C° 0.5 mm 5 mps 754 mmHg 80%
07:00 +14°C° 1.3 mm 5 mps 754 mmHg 82%
08:00 +14°C° 1.3 mm 5 mps 754 mmHg 85%
09:00 +14°C° 1.3 mm 5 mps 754 mmHg 88%
10:00 +14°C° 2.2 mm 5 mps 754 mmHg 88%
11:00 +14°C° 2.2 mm 6 mps 753 mmHg 89%
12:00 +14°C° 2.2 mm 6 mps 753 mmHg 90%
13:00 +14°C° 3.2 mm 6 mps 753 mmHg 89%
14:00 +14°C° 3.2 mm 6 mps 752 mmHg 88%
15:00 +13°C° 3.2 mm 6 mps 752 mmHg 87%
16:00 +14°C° 1.1 mm 6 mps 752 mmHg 85%
17:00 +14°C° 1.1 mm 5 mps 752 mmHg 82%
18:00 +14°C° 1.1 mm 5 mps 752 mmHg 80%
19:00 +14°C° 0.2 mm 5 mps 752 mmHg 80%
20:00 +14°C° 0.2 mm 5 mps 753 mmHg 80%
21:00 +14°C° 0.2 mm 5 mps 753 mmHg 80%
22:00 +13°C° 1.5 mm 5 mps 753 mmHg 83%
23:00 +13°C° 1.5 mm 5 mps 752 mmHg 87%

28 November, Saturday

Time Temperature Precipitation Wind Pressure Humidity
00:00 +13°C° 1.5 mm 5 mps 752 mmHg 90%
01:00 +13°C° 2.3 mm 5 mps 752 mmHg 89%
02:00 +13°C° 2.3 mm 4 mps 752 mmHg 89%
03:00 +13°C° 2.3 mm 4 mps 752 mmHg 88%
04:00 +13°C° 0.7 mm 4 mps 752 mmHg 88%
05:00 +13°C° 0.7 mm 4 mps 752 mmHg 88%
06:00 +13°C° 0.7 mm 4 mps 752 mmHg 89%
07:00 +14°C° 0.5 mm 5 mps 753 mmHg 86%
08:00 +14°C° 0.5 mm 5 mps 753 mmHg 84%
09:00 +14°C° 0.5 mm 5 mps 753 mmHg 81%
10:00 +15°C° 0.1 mm 5 mps 753 mmHg 75%
11:00 +16°C° 0.1 mm 6 mps 753 mmHg 69%
12:00 +17°C° 0.1 mm 6 mps 753 mmHg 63%
13:00 +17°C° 0 mm 5 mps 753 mmHg 62%
14:00 +17°C° 0 mm 5 mps 753 mmHg 61%
15:00 +17°C° 0 mm 5 mps 753 mmHg 60%
16:00 +17°C° 0 mm 4 mps 754 mmHg 65%
17:00 +16°C° 0 mm 3 mps 754 mmHg 70%
18:00 +14°C° 0 mm 2 mps 754 mmHg 75%
19:00 +14°C° 0 mm 2 mps 755 mmHg 74%
20:00 +14°C° 0 mm 1 mps 755 mmHg 74%
21:00 +14°C° 0 mm 1 mps 755 mmHg 73%
22:00 +14°C° 0 mm 2 mps 755 mmHg 72%
23:00 +14°C° 0 mm 2 mps 755 mmHg 71%

29 November, Sunday

Time Temperature Precipitation Wind Pressure Humidity
00:00 +12°C° 0 mm 3 mps 755 mmHg 69%
01:00 +12°C° 0 mm 3 mps 755 mmHg 70%
02:00 +12°C° 0 mm 4 mps 755 mmHg 71%
03:00 +12°C° 0 mm 4 mps 755 mmHg 72%
04:00 +12°C° 0 mm 4 mps 755 mmHg 73%
05:00 +12°C° 0 mm 4 mps 754 mmHg 74%
06:00 +12°C° 0 mm 4 mps 754 mmHg 75%
07:00 +13°C° 0 mm 4 mps 754 mmHg 71%
08:00 +14°C° 0 mm 4 mps 754 mmHg 68%
09:00 +14°C° 0 mm 4 mps 755 mmHg 64%
10:00 +17°C° 0 mm 3 mps 754 mmHg 59%
11:00 +18°C° 0 mm 3 mps 754 mmHg 54%
12:00 +19°C° 0 mm 3 mps 754 mmHg 49%
13:00 +19°C° 0 mm 3 mps 753 mmHg 49%
14:00 +19°C° 0 mm 3 mps 753 mmHg 48%
15:00 +19°C° 0 mm 3 mps 753 mmHg 48%
16:00 +18°C° 0 mm 3 mps 753 mmHg 55%
17:00 +16°C° 0 mm 3 mps 753 mmHg 62%
18:00 +13°C° 0 mm 3 mps 753 mmHg 69%
19:00 +14°C° 0 mm 2 mps 753 mmHg 71%
20:00 +13°C° 0 mm 2 mps 753 mmHg 73%
21:00 +13°C° 0 mm 2 mps 753 mmHg 75%
22:00 +13°C° 0 mm 2 mps 753 mmHg 75%
23:00 +12°C° 0 mm 2 mps 753 mmHg 76%
Show more